Regional Weather Roundup
Issued by NWS

Home | Current Version | Previous Version | Graphics & Text | Print | Product List | Glossary On
Versions: 1 2 3 4 5 6 7 8 9 10 11 12 13 14 15 16 17 18 19 20 21 22 23 24 25 26 27 28 29 30 31 32 33 34 35 36 37 38 39 40 41 42 43 44 45 46 47 48 49 50
000
ASUS45 KTFX 272010
RWRMT
MONTANA REGIONAL WEATHER ROUNDUP
NATIONAL WEATHER SERVICE GREAT FALLS MT
100 PM MST MON FEB 27 2017

NOTE: "FAIR" INDICATES FEW OR NO CLOUDS BELOW 12000 FEET WITH NO
SIGNIFICANT WEATHER AND/OR OBSTRUCTIONS TO VISIBILITY.

MTZ001>007-043-272100-
WEST OF THE DIVIDE

CITY           SKY/WX    TMP DP  RH WIND       PRES   REMARKS
KALISPELL      CLOUDY    24  14  65 CALM      29.61F
MISSOULA       CLOUDY    29  24  82 W3        29.60F
BUTTE          CLOUDY    27   9  46 S9        29.48F WCI  18
MULLAN PASS    LGT SNOW  19  15  84 SW8       29.47S FOG     WCI   9
ANACONDA         N/A     28  16  59 S9        29.51F WCI  20
DEER LODGE       N/A     28  18  64 NE3       29.54F
EUREKA           N/A     23  12  63 CALM      29.62F
HAMILTON         N/A     36  18  48 S3        29.57F
LIBBY            N/A     28  18  64 CALM      29.60S
PLAINS           N/A     31  18  58 CALM      29.64F
THOMPSON FALLS   N/A     29  21  71 NE2       29.68F
$$

MTZ008-052>055-272100-
SOUTHWEST MONTANA

CITY           SKY/WX    TMP DP  RH WIND       PRES   REMARKS
BOZEMAN        CLOUDY    27  16  63 CALM      29.54F
DILLON         CLOUDY    30   9  41 S12       29.51F WCI  20
W YELLOWSTONE  CLOUDY    19  12  73 SW6       29.52F WCI  11
ENNIS          MOSUNNY   30   5  34 S13G21    29.55F WCI  20
$$

MTZ009-010-012-014-046-048-049-054-272100-
EAST SLOPES AND CENTRAL MONTANA

CITY           SKY/WX    TMP DP  RH WIND       PRES   REMARKS
CUT BANK       MOSUNNY   15  10  80 S9        29.53F WCI   3
GREAT FALLS    SUNNY     19  10  68 SE6       29.55F WCI  11
MALMSTROM AFB  SUNNY     15  12  86 NE7       29.57F WCI   5
HELENA         CLOUDY    20  12  71 E5        29.57F
AUGUSTA          N/A     16  11  80 S9        29.49F WCI   5
BOWMANS CRNR     N/A     22  15  74 S15       29.47F WCI   9
CHOTEAU          N/A     18  10  73 SE7       29.55F WCI   8
CONRAD           N/A     18  11  74 E6        29.62S WCI  10
POWER            N/A     16  11  80 SE6       29.54F WCI   7
RAYNESFORD       N/A     17  11  77 E14       29.53F WCI   3
ULM              N/A     18  10  72 MISG      29.55F
$$

MTZ011-013-016-021-045-047-050-051-272100-
NORTH CENTRAL MONTANA

CITY           SKY/WX    TMP DP  RH WIND       PRES   REMARKS
HAVRE          MOSUNNY   22  11  62 E8        29.65F WCI  12
LEWISTOWN      SUNNY     19  12  74 E12       29.55F WCI   7
N BAR RANCH    CLOUDY    12   9  85 E9        29.58F WCI   0
CHINOOK          N/A     19  12  73 E14       29.69F WCI   6
DENTON           N/A     19  12  77 NE9       29.56F WCI   7
FORT BENTON      N/A     25  12  58 N5        29.64F
GEYSER           N/A     14  10  83 CALM      29.55F
GRASS RANGE      N/A     16  12  86 E10       29.57F WCI   3
JUDITH GAP       N/A     14  11  87 S16       29.56F WCI  -2
ROY            FLURRIES  16  14  95 MISG      29.60F
STANFORD         N/A     13  10  90 SW5       29.53F
WINIFRED         N/A     17  13  85 E14       29.58F WCI   3
$$

MTZ017>020-022>027-061-062-272100-
NORTHEAST MONTANA

CITY           SKY/WX    TMP DP  RH WIND       PRES   REMARKS
GLASGOW        MOSUNNY   19  11  70 E10       29.75F WCI   7
JORDAN           N/A     19  14  81 SE7       29.71F WCI  10
SIDNEY         LGT SNOW  18  12  77 NE13      29.80F WCI   5
WOLF POINT     SUNNY     16   7  67 E14       29.80F WCI   2
POPLAR           N/A     12   7  79 NE14      29.81F WCI  -3
SCOBEY           N/A     18   1  47 CALM      29.76
$$

MTZ028>42-056>058-272100-
SOUTHCENTRAL AND SOUTHEAST MONTANA

CITY           SKY/WX    TMP DP  RH WIND       PRES   REMARKS
BAKER          MOSUNNY   31  21  66 E13       29.64F WCI  21
BILLINGS       PTSUNNY   24  15  68 N3        29.61F
LIVINGSTON     MOSUNNY   27  17  66 E12       29.52F WCI  17
MILES CITY     CLOUDY    26  16  65 NE8       29.68F WCI  18
BIG TIMBER     SUNNY     25  18  74 E8        29.56F WCI  16
EKALAKA          N/A     33  14  45 NW5       29.62F
HARLOWTON      FLURRIES  17  12  82 NE7       29.58F WCI   7
LAUREL           N/A     24  12  60 NE2       29.62F
ROUNDUP          N/A     23  12  62 CALM      29.58F
$$

REGIONAL REPORTS...DAKOTAS

CITY           SKY/WX    TMP DP  RH WIND       PRES   REMARKS
WILLISTON      CLOUDY    14   6  70 NE9       29.82F WCI   2
MINOT          LGT SNOW  14   8  77 N9        29.83F WCI   2
DICKINSON      CLOUDY    17  13  84 NE14      29.69S FOG     WCI   3
BEACH            N/A    N/A N/A N/A MISG        N/A
CROSBY           N/A     10   1  67 E6        29.85F WCI   1
TIOGA          FLURRIES  10   9  92 E7        29.81F WCI   0
WATFORD CITY   LGT SNOW  14   9  79 NE10      29.80S WCI   1
BISMARCK       CLOUDY    24  17  74 NE13      29.78F WCI  12
GRAND FORKS    CLOUDY    27  15  61 W5        29.89F
FARGO          PTSUNNY   32  22  66 E7        29.83F WCI  26
BUFFALO SD       N/A     35  19  52 E3        29.56F
RAPID CITY     CLOUDY    43  24  47 NW8       29.57F
$$

REGIONAL REPORTS...WYOMING/IDAHO/WASHINGTON

CITY           SKY/WX    TMP DP  RH WIND       PRES   REMARKS
GILLETTE       CLOUDY    37   8  30 VRB5      29.57S
SHERIDAN       MOSUNNY   30  18  60 S8        29.59F WCI  22
BUFFALO WY     CLOUDY    30  11  45 VRB3      29.56F
CODY           CLOUDY    33  11  39 SE10      29.52F WCI  25
YELLOWSTONE LA   N/A     16  11  80 VRB5      29.48F
IDAHO FALLS    LGT SNOW  23  21  92 N7        29.61F VSB 1   WCI  15
SALMON         PTSUNNY   28  18  64 SE7       29.59F WCI  21
BOISE          CLOUDY    35  20  54 NW6       29.77S WCI  30
SPOKANE        LGT SNOW  28  26  92 SW12      29.64F VSB 1   WCI  18
$$

REGIONAL REPORTS...ALBERTA

CITY           SKY/WX    TMP DP  RH WIND       PRES   REMARKS
EDMONTON       PTSUNNY   19   3  49 W3        29.61F
CALGARY        MOSUNNY   14   1  57 S7        29.51F WCI   4
LETHBRIDGE     MOSUNNY   19  10  68 S14       29.55F WCI   6
MEDICINE HAT   PTSUNNY   16   3  57 E6        29.67F WCI   7
WATERTON GATE    N/A     27  10  50 SW12        N/A  WCI  16
CARDSTON         N/A     28   9  43 S5          N/A
MILK RIVER       N/A     19  12  73 S18         N/A  WCI   4
$$

REGIONAL REPORTS...SASKATCHEWAN

CITY           SKY/WX    TMP DP  RH WIND       PRES   REMARKS
SWIFT CURRENT  SUNNY     12   5  73 S10       29.69F WCI  -1
REGINA         PTSUNNY   10   0  61 S6        29.82F WCI   1
SASKATOON      MOSUNNY   14   1  57 SW12G17   29.79F WCI   0
CYPRESS HILLS    N/A      9   3  78 S12         N/A  WCI  -6
VAL MARIE        N/A     16   7  67 S8          N/A  WCI   5
ROCKGLEN         N/A     10   3  72 S6          N/A  WCI   1
ASSINIBOIA       N/A     18   3  53 SW8         N/A  WCI   7
$$



USA.gov is the U.S. government's official web portal to all federal, state and local government web resources and services.